SL-4 R/B (47619 NORAD) Tracking and Keplerian Element Data
This shows tracking and keplerian element data for the satellite.
Feedback or suggestion? Click here.
Element | Value |
Catalog | 47619 |
Name | SL-4 R/B |
Epoch Orbit | 39 |
Epoch Day | 48.78367193 |
Epoch Year | 2021 |
RAAN | 212.2014 |
Inclination | 51.6513 |
Eccentricity | 0.0005272 |
Argument of Perigee | 69.3925 |
Mean Anonmoly | 67.1662 |
Mean Motion | 16.46281604 |
Decay Rate | 0.11583269 |
L1 | 1 47619U 21011B 21048.78367193 .11583269 12605-4 25967-3 0 9996 |
L2 | 2 47619 51.6513 212.2014 0005272 69.3925 67.1662 16.46281604 390 |
Live tracking and technical data element details for SL-4 R/B (NORAD 47619). SL-4 R/B can be tracked NOW for your location showing map with azimuth and elevation plus other details from your city location.
Track the satellite on the map from your city or location and see movement details for azimuth, elevation, latitude, longitude, range, height, and movement on the map or in text.
IsCatalogInMostPopularTable: catalog: 47619, numindb: 1
Update: records affected: 1
GetName: 47619 SL-4 R/B
Hit Count: updated at: Fri, 26 Feb 2021 09:20:54 GMT